This demonstration page uses our WeatherBlox Daily Observations layout. Learn more.

41.86663, -103.66717

Hourly Observations for January 22, 2020

Temp ( °F °C ) Dew Point ( °F °C ) Humidity (%) Winds ( mph kmh ) Pressure ( in mb ) Visibility ( mi km ) Precip ( " mm )
12:53 am 00:53 Clear 33 0.6 29 -1.7 85 85 NNW 8 13 29.79 1009 10 16.0934 0 0
1:53 am 01:53 Clear 34 1.1 29 -1.7 82 82 WNW 9 15 29.79 1009 10 16.0934 0 0
2:53 am 02:53 Clear 38 3.3 29 -1.7 70 70 WNW 13 20 29.77 1008 10 16.0934 0 0
3:53 am 03:53 Clear 36 2.2 28 -2.2 73 73 W 9 15 29.77 1008 10 16.0934 0 0
4:53 am 04:53 Clear 34 1.1 27 -2.8 76 76 WNW 9 15 29.79 1009 10 16.0934 0 0
5:53 am 05:53 Mostly Clear 30 -1.1 25 -3.9 82 82 WNW 10 17 29.82 1010 10 16.0934 0 0
6:53 am 06:53 Cloudy 32 0 26 -3.3 79 79 WNW 12 19 29.82 1010 10 16.0934 0 0
7:53 am 07:53 Mostly Sunny 35 1.7 26 -3.3 70 70 WNW 13 20 29.85 1011 10 16.0934 0 0
8:53 am 08:53 Mostly Cloudy 36 2.2 26 -3.3 67 67 WNW 13 20 29.87 1012 10 16.0934 0 0
9:53 am 09:53 Sunny 42 5.6 26 -3.3 53 53 WNW 15 24 29.87 1012 10 16.0934 0 0
10:53 am 10:53 Sunny 45 7.2 25 -3.9 46 46 WNW 12 19 29.87 1011 10 16.0934 0 0
11:53 am 11:53 Sunny 50 10 25 -3.9 38 38 undefined N/A 29.83 1010 10 16.0934 0 0
12:53 pm 12:53 Mostly Cloudy 51 10.6 23 -5 33 33 NW 15 24 29.81 1009 10 16.0934 0 0
1:53 pm 13:53 Mostly Cloudy 53 11.7 24 -4.4 32 32 NW 18 30 29.79 1009 10 16.0934 0 0
2:53 pm 14:53 Cloudy 49 9.4 27 -2.8 43 43 NNW 21 33 29.84 1011 10 16.0934 0 0
3:53 pm 15:53 Sunny 42 5.6 29 -1.7 60 60 NNW 30 48 29.92 1013 10 16.0934 0 0
4:53 pm 16:53 Cloudy 38 3.3 28 -2.2 68 68 NW 16 26 29.97 1015 10 16.0934 0 0
5:53 pm 17:53 Mostly Clear 33 0.6 26 -3.3 75 75 WNW 7 11 30.04 1017 10 16.0934 0 0
6:53 pm 18:53 Partly Cloudy 33 0.6 26 -3.3 75 75 WNW 9 15 30.05 1018 10 16.0934 0 0
7:53 pm 19:53 Clear 30 -1.1 25 -3.9 82 82 W 8 13 30.07 1018 10 16.0934 0 0
8:53 pm 20:53 Clear 29 -1.7 24 -4.4 82 82 WNW 9 15 30.08 1019 10 16.0934 0 0
9:53 pm 21:53 Clear 24 -4.4 22 -5.6 91 91 NW 7 11 30.09 1019 10 16.0934 0 0
10:53 pm 22:53 Clear 26 -3.3 23 -5 88 88 NW 9 15 30.08 1019 10 16.0934 0 0
11:53 pm 23:53 Clear 27 -2.8 22 -5.6 81 81 WNW 14 22 30.06 1018 10 16.0934 0 0

Powered by AerisWeather